This is the latest recevied weather packets stored in our database for station/object K7FLA. If no packets are shown the sender has not sent any weather packets the latest 10 day(s).
| Time | Temp. | Humidity | Pressure | Rain* | Wind** | Luminosity | Snow |
|---|---|---|---|---|---|---|---|
| 1778005262 | 16.11° C | 61% | 1095 hPa | 0 mm | - | 500 W/m² | - |
| 1778004958 | 16.11° C | 61% | 1095 hPa | 0 mm | - | 497 W/m² | - |
| 1778004656 | 16.11° C | 59% | 1094.9 hPa | 0 mm | - | 325 W/m² | - |
| 1778004351 | 16.67° C | 58% | 1094.9 hPa | 0 mm | - | 298 W/m² | - |
| 1778004050 | 16.67° C | 58% | 1094.9 hPa | 0 mm | - | 372 W/m² | - |
| 1778003750 | 16.67° C | 61% | 1094.8 hPa | 0 mm | - | 470 W/m² | - |
| 1778003447 | 16.67° C | 61% | 1094.8 hPa | 0 mm | - | 487 W/m² | - |
| 1778003144 | 16.67° C | 61% | 1094.7 hPa | 0 mm | - | 396 W/m² | - |
| 1778002840 | 16.67° C | 61% | 1094.7 hPa | 0 mm | - | 410 W/m² | - |
| 1778002537 | 16.67° C | 62% | 1094.8 hPa | 0 mm | - | 432 W/m² | - |
| 1778002233 | 16.67° C | 67% | 1094.7 hPa | 0 mm | - | 434 W/m² | - |
| 1778001931 | 15.56° C | 73% | 1094.7 hPa | 0 mm | - | 1054 W/m² | - |
| 1778001627 | 15° C | 70% | 1094.8 hPa | 0 mm | - | 681 W/m² | - |
| 1778001322 | 14.44° C | 70% | 1094.5 hPa | 0 mm | - | 431 W/m² | - |
| 1778001020 | 13.89° C | 74% | 1094.6 hPa | 0 mm | - | 384 W/m² | - |
| 1778000716 | 13.89° C | 73% | 1094.6 hPa | 0 mm | - | 335 W/m² | - |
| 1778000413 | 13.89° C | 71% | 1094.5 hPa | 0 mm | - | 230 W/m² | - |
| 1778000108 | 13.89° C | 75% | 1094.7 hPa | 0 mm | - | 217 W/m² | - |
| 1777999804 | 13.89° C | 75% | 1094.3 hPa | 0 mm | - | 305 W/m² | - |
| 1777999500 | 13.89° C | 75% | 1094.2 hPa | 0 mm | - | 268 W/m² | - |
| 1777999198 | 13.89° C | 73% | 1094.3 hPa | 0 mm | - | 258 W/m² | - |
| 1777998896 | 14.44° C | 74% | 1094.2 hPa | 0 mm | - | 242 W/m² | - |
| 1777998596 | 14.44° C | 73% | 1094 hPa | 0 mm | - | 240 W/m² | - |
| 1777998291 | 15° C | 72% | 1094 hPa | 0 mm | - | 270 W/m² | - |
| 1777997988 | 14.44° C | 75% | 1093.9 hPa | 0 mm | - | 278 W/m² | - |
* Rain latest hour (hover to see other rain measurements)
** Current wind speed in m/s (hover to see current wind gust speed)